Stündliche Wetter Barrancas

Heute, 25 Oktober, Sonntag

Zeit Temperatur Niederschläge Wind Luftdruck Luftfeuchtigkeit
00:00 +21°C° 0.4 mm 1 m/S 674 mmHg 92%
01:00 +21°C° 0.4 mm 1 m/S 674 mmHg 93%
02:00 +20°C° 0.4 mm 1 m/S 674 mmHg 93%
03:00 +20°C° 0.4 mm 1 m/S 674 mmHg 93%
04:00 +20°C° 0.4 mm 1 m/S 673 mmHg 94%
05:00 +19°C° 0.1 mm 0 m/S 674 mmHg 91%
06:00 +20°C° 0.1 mm 0 m/S 675 mmHg 89%
07:00 +21°C° 0.1 mm 0 m/S 676 mmHg 86%
08:00 +23°C° 0.3 mm 0 m/S 676 mmHg 79%
09:00 +27°C° 0.3 mm 1 m/S 677 mmHg 71%
10:00 +29°C° 0.3 mm 1 m/S 678 mmHg 64%
11:00 +28°C° 1.1 mm 1 m/S 677 mmHg 67%
12:00 +28°C° 1.1 mm 1 m/S 676 mmHg 70%
13:00 +28°C° 1.1 mm 1 m/S 675 mmHg 73%
14:00 +27°C° 1.4 mm 1 m/S 675 mmHg 77%
15:00 +27°C° 1.4 mm 1 m/S 674 mmHg 80%
16:00 +24°C° 1.4 mm 0 m/S 674 mmHg 84%
17:00 +23°C° 0.8 mm 0 m/S 674 mmHg 87%
18:00 +21°C° 0.8 mm 0 m/S 674 mmHg 91%
19:00 +20°C° 0.8 mm 0 m/S 674 mmHg 94%
20:00 +20°C° 0.6 mm 0 m/S 675 mmHg 94%
21:00 +22°C° 0.6 mm 1 m/S 675 mmHg 94%
22:00 +21°C° 0.6 mm 1 m/S 675 mmHg 94%
23:00 +21°C° 0.4 mm 1 m/S 675 mmHg 94%

Morgen, 26 Oktober, Montag

Zeit Temperatur Niederschläge Wind Luftdruck Luftfeuchtigkeit
00:00 +21°C° 0.4 mm 1 m/S 674 mmHg 93%
01:00 +20°C° 0.4 mm 1 m/S 674 mmHg 93%
02:00 +20°C° 0.5 mm 1 m/S 674 mmHg 92%
03:00 +20°C° 0.5 mm 1 m/S 674 mmHg 92%
04:00 +20°C° 0.5 mm 1 m/S 674 mmHg 92%
05:00 +21°C° 0.3 mm 1 m/S 674 mmHg 90%
06:00 +20°C° 0.3 mm 0 m/S 675 mmHg 89%
07:00 +20°C° 0.3 mm 0 m/S 676 mmHg 87%
08:00 +22°C° 0.5 mm 0 m/S 676 mmHg 85%
09:00 +25°C° 0.5 mm 1 m/S 677 mmHg 82%
10:00 +26°C° 0.5 mm 1 m/S 677 mmHg 79%
11:00 +26°C° 0.9 mm 1 m/S 676 mmHg 79%
12:00 +27°C° 0.9 mm 1 m/S 676 mmHg 78%
13:00 +27°C° 0.9 mm 1 m/S 675 mmHg 77%
14:00 +27°C° 1.2 mm 1 m/S 674 mmHg 80%
15:00 +24°C° 1.2 mm 0 m/S 674 mmHg 82%
16:00 +24°C° 1.2 mm 0 m/S 674 mmHg 85%
17:00 +23°C° 0.5 mm 0 m/S 674 mmHg 88%
18:00 +21°C° 0.5 mm 0 m/S 674 mmHg 92%
19:00 +20°C° 0.5 mm 0 m/S 674 mmHg 95%
20:00 +22°C° 0.2 mm 1 m/S 674 mmHg 95%
21:00 +21°C° 0.2 mm 1 m/S 675 mmHg 94%
22:00 +21°C° 0.2 mm 1 m/S 675 mmHg 94%
23:00 +21°C° 0.1 mm 1 m/S 674 mmHg 94%

übermorgen, 27 Oktober, Dienstag

Zeit Temperatur Niederschläge Wind Luftdruck Luftfeuchtigkeit
00:00 +20°C° 0.1 mm 1 m/S 674 mmHg 95%
01:00 +20°C° 0.1 mm 1 m/S 674 mmHg 95%
02:00 +20°C° 0.1 mm 1 m/S 674 mmHg 95%
03:00 +20°C° 0.1 mm 1 m/S 674 mmHg 95%
04:00 +20°C° 0.1 mm 1 m/S 674 mmHg 95%
05:00 +21°C° 0.1 mm 1 m/S 674 mmHg 93%
06:00 +22°C° 0.1 mm 1 m/S 675 mmHg 91%
07:00 +22°C° 0.1 mm 1 m/S 675 mmHg 89%
08:00 +24°C° 0.4 mm 1 m/S 676 mmHg 85%
09:00 +25°C° 0.4 mm 1 m/S 676 mmHg 81%
10:00 +26°C° 0.4 mm 1 m/S 676 mmHg 77%
11:00 +26°C° 1.8 mm 1 m/S 675 mmHg 81%
12:00 +26°C° 1.8 mm 1 m/S 675 mmHg 84%
13:00 +26°C° 1.8 mm 1 m/S 674 mmHg 88%
14:00 +25°C° 2 mm 1 m/S 673 mmHg 90%
15:00 +23°C° 2 mm 0 m/S 673 mmHg 92%
16:00 +22°C° 2 mm 0 m/S 672 mmHg 94%
17:00 +21°C° 0.8 mm 0 m/S 672 mmHg 95%
18:00 +21°C° 0.8 mm 0 m/S 673 mmHg 95%
19:00 +20°C° 0.8 mm 0 m/S 673 mmHg 96%
20:00 +19°C° 0.3 mm 0 m/S 673 mmHg 96%
21:00 +19°C° 0.3 mm 0 m/S 674 mmHg 96%
22:00 +19°C° 0.3 mm 0 m/S 674 mmHg 96%
23:00 +19°C° 0.1 mm 0 m/S 674 mmHg 95%

28 Oktober, Mittwoch

Zeit Temperatur Niederschläge Wind Luftdruck Luftfeuchtigkeit
00:00 +19°C° 0.1 mm 0 m/S 673 mmHg 95%
01:00 +18°C° 0.1 mm 0 m/S 673 mmHg 95%
02:00 +18°C° 0 mm 0 m/S 673 mmHg 95%
03:00 +18°C° 0 mm 0 m/S 673 mmHg 95%
04:00 +20°C° 0 mm 1 m/S 673 mmHg 95%
05:00 +19°C° 0 mm 0 m/S 673 mmHg 93%
06:00 +19°C° 0 mm 0 m/S 674 mmHg 91%
07:00 +20°C° 0 mm 0 m/S 674 mmHg 89%
08:00 +22°C° 0.1 mm 0 m/S 675 mmHg 79%
09:00 +27°C° 0.1 mm 1 m/S 675 mmHg 70%
10:00 +29°C° 0.1 mm 1 m/S 676 mmHg 60%
11:00 +29°C° 0.5 mm 1 m/S 675 mmHg 62%
12:00 +29°C° 0.5 mm 1 m/S 674 mmHg 64%
13:00 +28°C° 0.5 mm 1 m/S 673 mmHg 66%
14:00 +27°C° 1.2 mm 1 m/S 673 mmHg 72%
15:00 +27°C° 1.2 mm 1 m/S 672 mmHg 78%
16:00 +24°C° 1.2 mm 0 m/S 672 mmHg 84%
17:00 +22°C° 0.9 mm 0 m/S 672 mmHg 87%
18:00 +21°C° 0.9 mm 0 m/S 672 mmHg 91%
19:00 +20°C° 0.9 mm 0 m/S 673 mmHg 94%
20:00 +19°C° 0.9 mm 0 m/S 673 mmHg 94%
21:00 +21°C° 0.9 mm 1 m/S 673 mmHg 94%
22:00 +21°C° 0.9 mm 1 m/S 674 mmHg 94%
23:00 +21°C° 0.7 mm 1 m/S 673 mmHg 94%

29 Oktober, Donnerstag

Zeit Temperatur Niederschläge Wind Luftdruck Luftfeuchtigkeit
00:00 +21°C° 0.7 mm 1 m/S 673 mmHg 94%
01:00 +20°C° 0.7 mm 1 m/S 673 mmHg 94%
02:00 +20°C° 0.2 mm 1 m/S 673 mmHg 94%
03:00 +20°C° 0.2 mm 1 m/S 673 mmHg 94%
04:00 +20°C° 0.2 mm 1 m/S 673 mmHg 94%
05:00 +21°C° 0.2 mm 1 m/S 674 mmHg 92%
06:00 +21°C° 0.2 mm 1 m/S 674 mmHg 90%
07:00 +20°C° 0.2 mm 0 m/S 675 mmHg 89%
08:00 +22°C° 0.7 mm 0 m/S 676 mmHg 86%
09:00 +23°C° 0.7 mm 0 m/S 676 mmHg 83%
10:00 +24°C° 0.7 mm 0 m/S 676 mmHg 80%
11:00 +27°C° 1.2 mm 1 m/S 676 mmHg 79%
12:00 +27°C° 1.2 mm 1 m/S 675 mmHg 77%
13:00 +28°C° 1.2 mm 1 m/S 674 mmHg 76%
14:00 +27°C° 1.3 mm 1 m/S 674 mmHg 80%
15:00 +26°C° 1.3 mm 1 m/S 673 mmHg 85%
16:00 +25°C° 1.3 mm 1 m/S 673 mmHg 89%
17:00 +24°C° 0.9 mm 1 m/S 673 mmHg 91%
18:00 +23°C° 0.9 mm 1 m/S 673 mmHg 92%
19:00 +22°C° 0.9 mm 1 m/S 673 mmHg 94%
20:00 +21°C° 0.5 mm 1 m/S 674 mmHg 94%
21:00 +21°C° 0.5 mm 1 m/S 674 mmHg 94%
22:00 +21°C° 0.5 mm 1 m/S 674 mmHg 94%
23:00 +21°C° 0.8 mm 1 m/S 674 mmHg 94%

30 Oktober, Freitag

Zeit Temperatur Niederschläge Wind Luftdruck Luftfeuchtigkeit
00:00 +21°C° 0.8 mm 1 m/S 674 mmHg 94%
01:00 +21°C° 0.8 mm 1 m/S 674 mmHg 94%
02:00 +21°C° 0.3 mm 1 m/S 674 mmHg 94%
03:00 +21°C° 0.3 mm 1 m/S 674 mmHg 93%
04:00 +21°C° 0.3 mm 1 m/S 674 mmHg 93%
05:00 +21°C° 0 mm 1 m/S 674 mmHg 91%
06:00 +22°C° 0 mm 1 m/S 675 mmHg 89%
07:00 +22°C° 0 mm 1 m/S 675 mmHg 87%
08:00 +24°C° 0.1 mm 1 m/S 676 mmHg 79%
09:00 +26°C° 0.1 mm 1 m/S 676 mmHg 70%
10:00 +28°C° 0.1 mm 1 m/S 677 mmHg 62%
11:00 +28°C° 1 mm 1 m/S 676 mmHg 66%
12:00 +28°C° 1 mm 1 m/S 675 mmHg 71%
13:00 +28°C° 1 mm 1 m/S 674 mmHg 75%
14:00 +27°C° 0.9 mm 1 m/S 674 mmHg 79%
15:00 +26°C° 0.9 mm 1 m/S 673 mmHg 83%
16:00 +26°C° 0.9 mm 1 m/S 673 mmHg 87%
17:00 +24°C° 1 mm 1 m/S 673 mmHg 89%
18:00 +23°C° 1 mm 1 m/S 674 mmHg 92%
19:00 +22°C° 1 mm 1 m/S 674 mmHg 95%
20:00 +21°C° 2.1 mm 1 m/S 674 mmHg 95%
21:00 +21°C° 2.1 mm 1 m/S 674 mmHg 95%
22:00 +21°C° 2.1 mm 1 m/S 675 mmHg 95%
23:00 +21°C° 3.1 mm 1 m/S 675 mmHg 95%
Mehr zeigen